Location: Unspecified
(0.0000°N, 0.0000°E)
Time: 08:31:56
(UTC+00:00)

Transit 4A - All Passes

Search period start: 21 July 2024 00:00
Search period end: 31 July 2024 00:00
Orbit: 869 x 973 km, 66.8° (Epoch: 20 July)

Date Brightness Start Highest point End Pass type
(mag) Time Alt. Az. Time Alt. Az. Time Alt. Az.
21 Jul - 00:59:54 10° NNE 01:03:35 16° ENE 01:07:17 10° ESE night (unlit)
21 Jul - 02:43:45 10° NW 02:49:38 44° WSW 02:55:38 10° S night (unlit)
21 Jul - 13:55:32 10° SSW 14:01:26 72° ESE 14:07:13 10° NNE daylight
22 Jul - 01:07:22 10° NNE 01:12:34 28° ENE 01:17:49 10° SE night (unlit)
22 Jul - 02:53:31 10° NW 02:58:37 26° WSW 03:03:49 10° SSW night (unlit)
22 Jul - 14:04:31 10° SSW 14:10:23 67° WNW 14:16:08 10° NNE daylight
23 Jul - 01:15:35 10° N 01:21:31 46° ENE 01:27:34 10° SE night (unlit)
23 Jul - 03:04:08 10° WNW 03:07:39 15° WSW 03:11:11 10° SW night (unlit)
23 Jul - 12:29:44 10° SSE 12:33:15 16° ESE 12:36:43 10° ENE daylight
23 Jul - 14:13:55 10° SW 14:19:19 38° WNW 14:24:39 10° N daylight
24 Jul - 01:24:14 10° NNW 01:30:28 78° ENE 01:36:50 10° SSE night (unlit)
24 Jul - 12:37:17 10° SSE 12:42:15 28° ESE 12:47:08 10° NE daylight
24 Jul - 14:23:52 10° WSW 14:28:16 22° WNW 14:32:38 10° NNW daylight
24 Jul - 23:52:23 10° ENE 23:53:22 10° ENE 23:54:20 10° E night (unlit)
25 Jul - 01:33:16 10° NNW 01:39:26 64° WSW 01:45:44 10° S night (unlit)
25 Jul - 12:45:33 10° S 12:51:13 48° ESE 12:56:48 10° NE daylight
25 Jul - 14:35:05 10° W 14:37:15 12° WNW 14:39:24 10° NW daylight
25 Jul - 23:58:05 10° NNE 00:02:21 19° ENE 00:06:40 10° ESE night (unlit)
26 Jul - 01:42:42 10° NW 01:48:24 38° WSW 01:54:14 10° S night (unlit)
26 Jul - 12:54:16 10° SSW 13:00:11 84° ESE 13:05:59 10° NNE daylight
27 Jul - 00:05:50 10° N 00:11:20 32° ENE 00:16:53 10° SE night (unlit)
27 Jul - 01:52:39 10° WNW 01:57:25 23° WSW 02:02:14 10° SSW night (unlit)
27 Jul - 11:22:24 10° ESE 11:23:00 10° ESE 11:23:34 10° ESE daylight
27 Jul - 13:03:22 10° SSW 13:09:07 56° WNW 13:14:47 10° N daylight
28 Jul - 00:14:12 10° N 00:20:17 54° ENE 00:26:28 10° SSE night (unlit)
28 Jul - 02:03:45 10° W 02:06:26 13° WSW 02:09:07 10° SW night (unlit)
28 Jul - 11:27:57 10° SSE 11:32:01 19° ESE 11:36:00 10° ENE daylight
28 Jul - 13:12:54 10° SW 13:18:03 32° WNW 13:23:10 10° N daylight
29 Jul - 00:22:58 10° NNW 00:29:14 90° SSW 00:35:37 10° SSE night (unlit)
29 Jul - 11:35:46 10° S 11:41:00 33° ESE 11:46:07 10° NE daylight
29 Jul - 13:23:05 10° WSW 13:27:01 19° WNW 13:30:55 10° NNW daylight
29 Jul - 22:49:30 10° NE 22:52:08 13° ENE 22:54:45 10° E night (unlit)
30 Jul - 00:32:06 10° NNW 00:38:11 54° WSW 00:44:24 10° S night (unlit)
30 Jul - 11:44:11 10° S 11:49:58 57° ESE 11:55:38 10° NNE daylight
30 Jul - 22:56:22 10° NNE 23:01:07 22° ENE 23:05:54 10° ESE night (unlit)
